Tracking 35334 objects as of 12-Sep-2026
HD Live streaming from Space Station
objects crossing your sky now

DMSP 5D-2 F13 DEB


DMSP 5D-2 F13 DEB is no longer on orbit


NORAD ID: 42287
Int'l Code: 1995-015HD
Launch date: March 24, 1995
Source: United States (US)
Launch site: AIR FORCE WESTERN TEST RANGE (AFWTR)
Decay date: 2023-05-31

Note: This is SATELLITE DEBRIS
Your satellite tracking list
Your tracking list is empty




NASA's NSSDC Master Catalog

Two Line Element Set (TLE):
1 42287U 95015HD  23141.73748347  .01748605  00000-0  39379-1 0  9990
2 42287  98.9210 238.0131 0029082 274.2249  85.5669 15.39892217420588
Source of the keplerian elements: AFSPC